Regional Weather Roundup
Issued by NWS

Home | Current Version | Previous Version | Text Only | Print | Product List | Glossary On
Versions: 1 2 3 4 5 6 7 8 9 10 11 12 13 14 15 16 17 18 19 20 21 22 23 24 25 26 27 28 29 30 31 32 33 34 35 36 37 38 39 40 41 42 43 44 45 46 47 48 49 50
000
ASUS43 KTOP 191559
RWRKS

WEATHER ROUNDUP FOR KANSAS
NATIONAL WEATHER SERVICE GOODLAND KS
1100 AM CDT THU APR 19 2018

NOTE:  "FAIR" INDICATES FEW OR NO CLOUDS BELOW 12,000 FEET WITH NO
SIGNIFICANT WEATHER AND/OR OBSTRUCTIONS TO VISIBILITY.

KSZ001>006-013>018-027>032-041>047-191700-
NORTHWEST KANSAS

CITY           SKY/WX    TMP DP  RH WIND       PRES   REMARKS
GOODLAND       SUNNY     51  29  42 S14G22    30.38F
HAYS           SUNNY     47  31  53 NE8       30.47S
HILL CITY      SUNNY     48  31  51 E7        30.46S
RUSSELL        SUNNY     48  30  49 NE8       30.46S
$$

KSZ061>065-074>080-084>089-191700-
SOUTHWEST KANSAS

CITY           SKY/WX    TMP DP  RH WIND       PRES   REMARKS
DODGE CITY     SUNNY     50  30  46 NE12      30.44R
ELKHART        SUNNY     54  31  41 S15G24    30.40F
GARDEN CITY    SUNNY     51  29  42 E9        30.42R
GREAT BEND     SUNNY     47  32  56 NE9       30.47S
LIBERAL        SUNNY     54  27  35 SE9       30.43S
$$

KSZ066>073-081>083-090>101-191700-
SOUTHEAST KANSAS

CITY           SKY/WX    TMP DP  RH WIND       PRES   REMARKS
CHANUTE        SUNNY     48  27  44 N16       30.46R
COFFEYVILLE    MOSUNNY   51  32  48 N16G23    30.45R
HUTCHINSON     SUNNY     49  28  44 N13       30.46S
MEDICINE LODGE   N/A     52  30  43 N10G21    30.44S
NEWTON         SUNNY     45  26  47 N16       30.46
PARSONS        PTSUNNY   49  31  49 N15G21    30.46R
WICHITA INTL   MOSUNNY   49  29  46 N16       30.45S
WICHITA JABRA  SUNNY     47  28  47 N14G20    30.46R
WINFIELD       SUNNY     51  32  48 N15G23    30.46S
$$

KSZ007>012-019>026-033>040-048>060-102>105-191700-
NORTHEAST KANSAS

CITY           SKY/WX    TMP DP  RH WIND       PRES   REMARKS
CONCORDIA      SUNNY     46  29  51 NE8       30.47S
EMPORIA        SUNNY     45  27  49 NE10      30.47R
LAWRENCE       SUNNY     47  30  51 VRB3      30.47R
MANHATTAN      SUNNY     46  29  51 NE10      30.49R
OLATHE IND     MOSUNNY   44  30  57 N12       30.47R
OLATHE EXE     MOSUNNY   44  29  55 N7        30.46R
SALINA         SUNNY     49  30  48 N13       30.48F
TOPEKA BILLARD SUNNY     48  31  51 NE10      30.48R
TOPEKA FORBES  SUNNY     47  30  51 NE12      30.47R
$$




USA.gov is the U.S. government's official web portal to all federal, state and local government web resources and services.